,

(GMT )
J6-a Sea

Weather History for EHJA - January, 2014

Change the Weather History Date:

Monday, January 20, 2014

  Actual Average Record
Temperature  
Mean Temperature 44 °F -  
Max Temperature 45 °F - - ()
Min Temperature 42 °F - - ()
Degree Days  
Heating Degree Days 22    
Moisture  
Dew Point 40 °F    
Average Humidity 86    
Maximum Humidity 93    
Minimum Humidity 75    
Precipitation  
Precipitation 0.00 in - - ()
Sea Level Pressure  
Sea Level Pressure 29.73 in    
Wind  
Wind Speed 9 mph ()    
Max Wind Speed 18 mph    
Max Gust Speed -    
Visibility 6.7 miles    
Events      
T = Trace of Precipitation, MM = Missing Value Source: Averaged Metar Reports

Daily Weather History Graph

Daily Weather History Graph

Search for Another Location

Airport or City:

Trip Planner

Search our weather history database for the weather conditions in past years. The results will help you decide how hot, cold, wet, or windy it might be!

Date:

Astronomy

Jan. 20, 2014 Rise Set
Actual Time 8:52 AM CET 5:06 PM CET
Civil Twilight 8:11 AM CET 5:47 PM CET
Nautical Twilight 7:28 AM CET 6:30 PM CET
Astronomical Twilight 6:46 AM CET 7:12 PM CET
Moon 10:12 PM CET (1/20) 10:02 AM CET (1/20)
Length of Visible Light 9h 35m
Length of Day
8h 14m
Waning Gibbous, 84% of the Moon is Illuminated
Jan 20
Waning Gibbous
Jan 24
Last Quarter
Jan 30
New
Feb 6
First Quarter
Feb 15
Full

Hourly Weather History & Observations

Time (CET) Temp. Windchill Dew Point Humidity Pressure Visibility Wind Dir Wind Speed Gust Speed Precip Events Conditions
12:00 AM 45 °F - 41 °F 80% 29.60 in 28 mi West 6.7 mph - -   Scattered Clouds
12:25 AM 44.6 °F 40.7 °F 41.0 °F 87% 29.59 in 6.2 mi West 6.9 mph - N/A   Scattered Clouds
12:55 AM 44.6 °F 40.7 °F 41.0 °F 87% 29.59 in 6.2 mi West 6.9 mph - N/A   Scattered Clouds
1:00 AM 45 °F - 41 °F 82% 29.61 in 28 mi West 6.7 mph - -   Partly Cloudy
1:25 AM 44.6 °F 40.7 °F 41.0 °F 87% 29.59 in 6.2 mi West 6.9 mph - N/A   Partly Cloudy
1:55 AM 44.6 °F 40.7 °F 41.0 °F 87% 29.59 in 6.2 mi West 6.9 mph - N/A   Unknown
2:00 AM 44 °F - 41 °F 84% 29.62 in 28 mi West 6.7 mph - -   Partly Cloudy
2:25 AM 44.6 °F 40.7 °F 41.0 °F 87% 29.59 in 6.2 mi WNW 6.9 mph - N/A   Unknown
2:55 AM 44.6 °F 40.2 °F 41.0 °F 87% 29.62 in 6.2 mi WNW 8.1 mph - N/A   Unknown
3:00 AM 44 °F - 41 °F 83% 29.64 in 28 mi WNW 6.7 mph - -   Partly Cloudy
3:25 AM 44.6 °F 40.7 °F 41.0 °F 87% 29.62 in 6.2 mi WNW 6.9 mph - N/A   Mostly Cloudy
3:55 AM 44.6 °F 39.7 °F 41.0 °F 87% 29.62 in 6.2 mi WNW 9.2 mph - N/A   Overcast
4:00 AM 44 °F - 41 °F 85% 29.65 in 28 mi WNW 6.7 mph - -   Overcast
4:25 AM 44.6 °F 39.2 °F 41.0 °F 87% 29.62 in 6.2 mi WNW 10.4 mph - N/A   Overcast
4:55 AM 44.6 °F 40.7 °F 41.0 °F 87% 29.62 in 6.2 mi NW 6.9 mph - N/A   Overcast
5:00 AM 44 °F - 41 °F 84% 29.65 in 28 mi WNW 6.7 mph - -   Overcast
5:25 AM 44.6 °F 39.2 °F 41.0 °F 87% 29.62 in 6.2 mi WNW 10.4 mph - N/A   Mostly Cloudy
5:55 AM 44.6 °F 40.2 °F 41.0 °F 87% 29.65 in 6.2 mi NW 8.1 mph - N/A   Scattered Clouds
6:00 AM 44 °F - 41 °F 84% 29.66 in 28 mi NW 6.7 mph - -   Mostly Cloudy
6:25 AM 44.6 °F 39.7 °F 41.0 °F 87% 29.65 in 6.2 mi NW 9.2 mph - N/A   Mostly Cloudy
6:55 AM 44.6 °F 40.7 °F 41.0 °F 87% 29.65 in 6.2 mi North 6.9 mph - N/A   Scattered Clouds
7:00 AM 44 °F - 41 °F 87% 29.68 in 28 mi North 4.5 mph - -   Partly Cloudy
7:25 AM 44.6 °F 40.7 °F 41.0 °F 87% 29.68 in 6.2 mi Variable 6.9 mph - N/A   Partly Cloudy
7:55 AM 44.6 °F 39.7 °F 41.0 °F 87% 29.68 in 6.2 mi NW 9.2 mph - N/A   Scattered Clouds
8:00 AM 44 °F - 42 °F 88% 29.70 in 28 mi NW 6.7 mph - -   Scattered Clouds
8:25 AM 44.6 °F 39.2 °F 41.0 °F 87% 29.68 in 6.2 mi NW 10.4 mph - N/A   Scattered Clouds
8:55 AM 44.6 °F 40.2 °F 41.0 °F 87% 29.68 in 6.2 mi NNW 8.1 mph - N/A   Partly Cloudy
9:00 AM 45 °F - 42 °F 85% 29.71 in 25 mi NW 6.7 mph - -   Scattered Clouds
9:25 AM 44.6 °F 39.7 °F 42.8 °F 93% 29.71 in 6.2 mi North 9.2 mph - N/A   Mostly Cloudy
9:55 AM 44.6 °F 38.4 °F 42.8 °F 93% 29.71 in 4.3 mi Variable 12.7 mph - N/A   Mostly Cloudy
10:00 AM 45 °F - 43 °F 89% 29.73 in 3 mi East 11.2 mph - -   Mist
10:25 AM 44.6 °F 38.1 °F 42.8 °F 93% 29.71 in - ENE 13.8 mph - N/A   Overcast
10:55 AM 44.6 °F 37.8 °F 42.8 °F 93% 29.74 in 3.1 mi ENE 15.0 mph - N/A   Overcast
11:00 AM 44 °F - 42 °F 89% 29.75 in 3 mi ENE 13.4 mph - -   Mist
11:25 AM 42.8 °F 35.4 °F 41.0 °F 93% 29.74 in 3.7 mi East 15.0 mph - N/A   Mostly Cloudy
11:55 AM 42.8 °F 36.2 °F 41.0 °F 93% 29.74 in 4.3 mi ENE 12.7 mph - N/A   Overcast
12:00 PM 43 °F - 41 °F 89% 29.76 in 4 mi ENE 11.2 mph - -   Mist
12:25 PM 42.8 °F 36.2 °F 41.0 °F 93% 29.74 in 5.0 mi ENE 12.7 mph - N/A   Overcast
12:55 PM 42.8 °F 36.6 °F 41.0 °F 93% 29.74 in 5.0 mi ESE 11.5 mph - N/A   Overcast
1:00 PM 43 °F - 41 °F 88% 29.77 in 6 mi ESE 11.2 mph - -   Partly Cloudy
1:25 PM 42.8 °F 36.6 °F 41.0 °F 93% 29.74 in 6.2 mi Variable 11.5 mph - N/A   Overcast
1:55 PM 42.8 °F 36.2 °F 41.0 °F 93% 29.74 in 5.0 mi Variable 12.7 mph - N/A   Overcast
2:00 PM 43 °F - 41 °F 88% 29.77 in 6 mi ESE 11.2 mph - -   Mist
2:25 PM 42.8 °F 39.3 °F 41.0 °F 93% 29.77 in 6.2 mi Variable 5.8 mph - N/A   Overcast
2:55 PM 42.8 °F 34.8 °F 39.2 °F 87% 29.77 in 6.2 mi Variable 17.3 mph - N/A   Overcast
3:00 PM 43 °F - 39 °F 82% 29.78 in 9 mi East 13.4 mph - -   Overcast
3:25 PM 42.8 °F 34.8 °F 39.2 °F 87% 29.77 in 6.2 mi Variable 17.3 mph - N/A   Overcast
3:55 PM 42.8 °F 34.8 °F 39.2 °F 87% 29.77 in 6.2 mi Variable 17.3 mph - N/A   Overcast
4:00 PM 43 °F - 39 °F 80% 29.80 in 14 mi East 13.4 mph - -   Overcast
4:25 PM 42.8 °F 35.4 °F 39.2 °F 87% 29.77 in 6.2 mi Variable 15.0 mph - N/A   Overcast
4:55 PM 42.8 °F 34.8 °F 39.2 °F 87% 29.80 in 6.2 mi Variable 17.3 mph - N/A   Overcast
5:00 PM 43 °F - 39 °F 80% 29.81 in 19 mi East 15.7 mph - -   Overcast
5:25 PM 42.8 °F 34.5 °F 39.2 °F 87% 29.80 in 6.2 mi Variable 18.4 mph - N/A   Overcast
5:55 PM 42.8 °F 36.2 °F 39.2 °F 87% 29.80 in 6.2 mi ENE 12.7 mph - N/A   Overcast
6:00 PM 43 °F - 39 °F 79% 29.82 in 19 mi NE 8.9 mph - -   Overcast
6:25 PM 42.8 °F 36.2 °F 39.2 °F 87% 29.80 in 6.2 mi Variable 12.7 mph - N/A   Overcast
6:55 PM 42.8 °F 37.0 °F 39.2 °F 87% 29.80 in 6.2 mi Variable 10.4 mph - N/A   Overcast
7:00 PM 43 °F - 38 °F 77% 29.83 in 19 mi ENE 8.9 mph - -   Partly Cloudy
7:25 PM 42.8 °F 36.6 °F 39.2 °F 87% 29.80 in 6.2 mi Variable 11.5 mph - N/A   Overcast
7:55 PM 42.8 °F 36.2 °F 39.2 °F 87% 29.83 in 6.2 mi Variable 12.7 mph - N/A   Overcast
8:00 PM 42 °F - 38 °F 81% 29.84 in 25 mi NE 11.2 mph - -   Overcast
8:25 PM 42.8 °F 35.8 °F 37.4 °F 81% 29.83 in 6.2 mi Variable 13.8 mph - N/A   Overcast
8:55 PM 42.8 °F 35.8 °F 37.4 °F 81% 29.83 in 6.2 mi Variable 13.8 mph - N/A   Overcast
9:00 PM 42 °F - 37 °F 78% 29.84 in 28 mi NNE 11.2 mph - -   Overcast
9:25 PM 42.8 °F 35.8 °F 37.4 °F 81% 29.83 in 6.2 mi NNE 13.8 mph - N/A   Overcast
9:55 PM 42.8 °F 36.6 °F 37.4 °F 81% 29.83 in 6.2 mi Variable 11.5 mph - N/A   Overcast
10:00 PM 42 °F - 37 °F 75% 29.85 in 28 mi NNE 8.9 mph - -   Overcast
10:25 PM 42.8 °F 36.6 °F 37.4 °F 81% 29.83 in 6.2 mi Variable 11.5 mph - N/A   Mostly Cloudy
10:55 PM 42.8 °F 37.0 °F 37.4 °F 81% 29.83 in 6.2 mi Variable 10.4 mph - N/A   Overcast
11:00 PM 42 °F - 37 °F 75% 29.86 in 28 mi North 6.7 mph - -   Overcast
11:25 PM 42.8 °F 38.0 °F 37.4 °F 81% 29.83 in 6.2 mi Variable 8.1 mph - N/A   Overcast
11:55 PM 42.8 °F 37.0 °F 37.4 °F 81% 29.83 in 6.2 mi Variable 10.4 mph - N/A   Mostly Cloudy